This is the latest recevied weather packets stored in our database for station/object OE6PLD-13. If no packets are shown the sender has not sent any weather packets the latest 10 day(s).
| Time | Temp. | Humidity | Pressure | Rain* | Wind** | Luminosity | Snow |
|---|---|---|---|---|---|---|---|
| 1777629445 | 17.78° C | 40% | 1013.8 hPa | 0.76 mm | - | 701 W/m² | - |
| 1777629262 | 17.22° C | 39% | 1013.8 hPa | 0.76 mm | - | 692 W/m² | - |
| 1777629078 | 16.67° C | 41% | 1013.9 hPa | 0.76 mm | - | 681 W/m² | - |
| 1777628895 | 16.67° C | 40% | 1013.8 hPa | 0.76 mm | - | 699 W/m² | - |
| 1777628711 | 16.67° C | 40% | 1014.1 hPa | 0.76 mm | - | 704 W/m² | - |
| 1777628528 | 16.67° C | 40% | 1014.1 hPa | 0.76 mm | - | 671 W/m² | - |
| 1777628345 | 17.22° C | 40% | 1014.1 hPa | 0.76 mm | - | 693 W/m² | - |
| 1777628161 | 16.67° C | 41% | 1013.9 hPa | 0.76 mm | - | 679 W/m² | - |
| 1777627978 | 16.67° C | 41% | 1013.9 hPa | 0.76 mm | - | 690 W/m² | - |
| 1777627795 | 16.67° C | 41% | 1014 hPa | 0.76 mm | - | 687 W/m² | - |
| 1777627611 | 16.11° C | 41% | 1014 hPa | 0.76 mm | - | 696 W/m² | - |
| 1777627428 | 16.11° C | 42% | 1014.2 hPa | 0.76 mm | - | 598 W/m² | - |
| 1777627244 | 16.11° C | 42% | 1014.3 hPa | 0.76 mm | - | 686 W/m² | - |
| 1777627061 | 16.67° C | 42% | 1014 hPa | 0.76 mm | - | 615 W/m² | - |
| 1777626878 | 17.22° C | 41% | 1014.2 hPa | 0.76 mm | - | 677 W/m² | - |
| 1777626694 | 16.67° C | 41% | 1014.1 hPa | 0.76 mm | - | 705 W/m² | - |
| 1777626511 | 16.67° C | 42% | 1014.2 hPa | 0.76 mm | - | 685 W/m² | - |
| 1777626328 | 16.67° C | 42% | 1014.3 hPa | 0.76 mm | - | 687 W/m² | - |
| 1777626144 | 16.67° C | 43% | 1014.3 hPa | 0.76 mm | - | 704 W/m² | - |
| 1777625961 | 16.67° C | 41% | 1014.2 hPa | 0.76 mm | - | 706 W/m² | - |
| 1777625778 | 16.67° C | 42% | 1014.2 hPa | 0.76 mm | - | 753 W/m² | - |
| 1777625594 | 15.56° C | 42% | 1014.3 hPa | 0.76 mm | - | 659 W/m² | - |
| 1777625411 | 15.56° C | 43% | 1014.3 hPa | 0.76 mm | - | 824 W/m² | - |
| 1777625228 | 15° C | 44% | 1014.3 hPa | 0.76 mm | - | 600 W/m² | - |
| 1777625044 | 15° C | 44% | 1014.1 hPa | 0.76 mm | - | 294 W/m² | - |
* Rain latest hour (hover to see other rain measurements)
** Current wind speed in m/s (hover to see current wind gust speed)